Year,Month,Day,Hour,Minute,Value (Times are PST for temperature in C)
2009,02,18,08,27,1.60
2009,02,18,08,28,1.70
2009,02,18,08,29,1.80
2009,02,18,08,30,1.80
2009,02,18,08,31,1.80
2009,02,18,08,32,1.90
2009,02,18,08,33,2.00
2009,02,18,08,34,2.00
2009,02,18,08,35,2.10
2009,02,18,08,36,2.20
2009,02,18,08,37,2.20
2009,02,18,08,38,2.20
2009,02,18,08,39,2.30
2009,02,18,08,40,2.30
2009,02,18,08,41,2.30
2009,02,18,08,42,2.40
2009,02,18,08,43,2.40
2009,02,18,08,44,2.40
2009,02,18,08,45,2.40
2009,02,18,08,46,2.40
2009,02,18,08,47,2.50
2009,02,18,08,48,2.50
2009,02,18,08,49,2.50
2009,02,18,08,50,2.60
2009,02,18,08,51,2.70
2009,02,18,08,52,2.70
2009,02,18,08,53,2.80
2009,02,18,08,54,2.80
2009,02,18,08,55,2.90
2009,02,18,08,56,2.90
2009,02,18,08,57,3.00
2009,02,18,08,58,3.10
2009,02,18,08,59,3.20
2009,02,18,09,00,3.30
2009,02,18,09,01,3.30
2009,02,18,09,02,3.40
2009,02,18,09,03,3.40
2009,02,18,09,04,3.50
2009,02,18,09,05,3.50
2009,02,18,09,06,3.60
2009,02,18,09,07,3.60
2009,02,18,09,08,3.70
2009,02,18,09,09,3.70
2009,02,18,09,10,3.80
2009,02,18,09,11,3.80
2009,02,18,09,12,3.80
2009,02,18,09,13,3.80
2009,02,18,09,14,3.80
2009,02,18,09,15,3.90
2009,02,18,09,16,3.90
2009,02,18,09,17,4.00
2009,02,18,09,18,4.00
2009,02,18,09,19,4.10
2009,02,18,09,20,4.10
2009,02,18,09,21,4.10
2009,02,18,09,22,4.20
2009,02,18,09,23,4.20
2009,02,18,09,24,4.20
2009,02,18,09,25,4.30
2009,02,18,09,26,4.30
2009,02,18,09,27,4.40
2009,02,18,09,28,4.50
2009,02,18,09,29,4.50
2009,02,18,09,30,4.60
2009,02,18,09,31,4.70
2009,02,18,09,32,4.80
2009,02,18,09,33,4.90
2009,02,18,09,34,5.00
2009,02,18,09,35,5.10
2009,02,18,09,36,5.10
2009,02,18,09,37,5.20
2009,02,18,09,38,5.30
2009,02,18,09,39,5.30
2009,02,18,09,40,5.40
2009,02,18,09,41,5.50
2009,02,18,09,42,5.60
2009,02,18,09,43,5.70
2009,02,18,09,44,5.80
2009,02,18,09,45,5.90
2009,02,18,09,46,5.90
2009,02,18,09,47,5.90
2009,02,18,09,48,6.00
2009,02,18,09,49,6.00
2009,02,18,09,50,6.10
2009,02,18,09,51,6.20
2009,02,18,09,52,6.30
2009,02,18,09,53,6.30
2009,02,18,09,54,6.30
2009,02,18,09,55,6.40
2009,02,18,09,56,6.40
2009,02,18,09,57,6.40
2009,02,18,09,58,6.40
2009,02,18,09,59,6.50
2009,02,18,10,00,6.60
2009,02,18,10,01,6.60
2009,02,18,10,02,6.60
2009,02,18,10,03,6.60
2009,02,18,10,04,6.60
2009,02,18,10,05,6.70
2009,02,18,10,06,6.80
2009,02,18,10,07,6.80
2009,02,18,10,08,7.00
2009,02,18,10,09,7.10
2009,02,18,10,10,7.20
2009,02,18,10,11,7.40
2009,02,18,10,12,7.50
2009,02,18,10,13,7.50
2009,02,18,10,14,7.40
2009,02,18,10,15,7.40
2009,02,18,10,16,7.40
2009,02,18,10,17,7.40
2009,02,18,10,18,7.40
2009,02,18,10,19,7.40
2009,02,18,10,20,7.40
2009,02,18,10,21,7.40
2009,02,18,10,22,7.30
2009,02,18,10,23,7.30
2009,02,18,10,24,7.30
2009,02,18,10,25,7.30
2009,02,18,10,26,7.40
2009,02,18,10,27,7.50
2009,02,18,10,28,7.50
2009,02,18,10,29,7.60
2009,02,18,10,30,7.60
2009,02,18,10,31,7.60
2009,02,18,10,32,7.50
2009,02,18,10,33,7.50
2009,02,18,10,34,7.60
2009,02,18,10,35,7.70
2009,02,18,10,36,7.80
2009,02,18,10,37,7.90
2009,02,18,10,38,7.90
2009,02,18,10,39,7.80
2009,02,18,10,40,7.80
2009,02,18,10,41,7.80
2009,02,18,10,42,7.80
2009,02,18,10,43,7.80
2009,02,18,10,44,7.80
2009,02,18,10,45,7.80
2009,02,18,10,46,7.80
2009,02,18,10,47,7.80
2009,02,18,10,48,7.90
2009,02,18,10,49,7.90
2009,02,18,10,50,7.90
2009,02,18,10,51,8.00
2009,02,18,10,52,8.00
2009,02,18,10,53,8.00
2009,02,18,10,54,8.00
2009,02,18,10,55,8.10
2009,02,18,10,56,8.20
2009,02,18,10,57,8.20
2009,02,18,10,58,8.20
2009,02,18,10,59,8.10
2009,02,18,11,00,8.10
2009,02,18,11,01,8.10
2009,02,18,11,02,8.10
2009,02,18,11,03,8.10
2009,02,18,11,04,8.20
2009,02,18,11,05,8.30
2009,02,18,11,06,8.40
2009,02,18,11,07,8.50
2009,02,18,11,08,8.60
2009,02,18,11,09,8.70
2009,02,18,11,10,8.80
2009,02,18,11,11,8.90
2009,02,18,11,12,8.80
2009,02,18,11,13,8.60
2009,02,18,11,14,8.50
2009,02,18,11,15,8.50
2009,02,18,11,16,8.40
2009,02,18,11,17,8.50
2009,02,18,11,18,8.50
2009,02,18,11,19,8.50
2009,02,18,11,20,8.60
2009,02,18,11,21,8.60
2009,02,18,11,22,8.70
2009,02,18,11,23,8.70
2009,02,18,11,24,8.70
2009,02,18,11,25,8.70
2009,02,18,11,26,8.70
2009,02,18,11,27,8.70
2009,02,18,11,28,8.80
2009,02,18,11,29,8.90
2009,02,18,11,30,8.80
2009,02,18,11,31,8.90
2009,02,18,11,32,8.80
2009,02,18,11,33,8.70
2009,02,18,11,34,8.70
2009,02,18,11,35,8.70
2009,02,18,11,36,8.70
2009,02,18,11,37,8.70
2009,02,18,11,38,8.70
2009,02,18,11,39,8.60
2009,02,18,11,40,8.60
2009,02,18,11,41,8.60
2009,02,18,11,42,8.60
2009,02,18,11,43,8.60
2009,02,18,11,44,8.50
2009,02,18,11,45,8.60
2009,02,18,11,46,8.60
2009,02,18,11,47,8.70
2009,02,18,11,48,8.80
2009,02,18,11,49,8.90
2009,02,18,11,50,8.80
2009,02,18,11,51,8.70
2009,02,18,11,52,8.80
2009,02,18,11,53,8.90
2009,02,18,11,54,9.00
2009,02,18,11,55,9.10
2009,02,18,11,56,9.20
2009,02,18,11,57,9.20
2009,02,18,11,58,9.10
2009,02,18,11,59,9.10
2009,02,18,12,00,9.20
2009,02,18,12,01,9.10
2009,02,18,12,02,9.10
2009,02,18,12,03,9.20
2009,02,18,12,04,9.20
2009,02,18,12,05,9.20
2009,02,18,12,06,9.20
2009,02,18,12,07,9.20
2009,02,18,12,08,9.10
2009,02,18,12,09,9.10
2009,02,18,12,10,9.00
2009,02,18,12,11,9.00
2009,02,18,12,12,9.10
2009,02,18,12,13,9.00
2009,02,18,12,14,9.10
2009,02,18,12,15,9.10
2009,02,18,12,16,9.10
2009,02,18,12,17,9.20
2009,02,18,12,18,9.30
2009,02,18,12,19,9.40
2009,02,18,12,20,9.40
2009,02,18,12,21,9.40
2009,02,18,12,22,9.40
2009,02,18,12,23,9.30
2009,02,18,12,24,9.20
2009,02,18,12,25,9.20
2009,02,18,12,26,9.30
2009,02,18,12,27,9.30
2009,02,18,12,28,9.20
2009,02,18,12,29,9.20
2009,02,18,12,30,9.20
2009,02,18,12,31,9.20
2009,02,18,12,32,9.20
2009,02,18,12,33,9.00
2009,02,18,12,34,8.90
2009,02,18,12,35,8.80
2009,02,18,12,36,8.80
2009,02,18,12,37,8.90
2009,02,18,12,38,8.90
2009,02,18,12,39,9.10
2009,02,18,12,40,9.20
2009,02,18,12,41,9.20
2009,02,18,12,42,9.30
2009,02,18,12,43,9.30
2009,02,18,12,44,9.20
2009,02,18,12,45,9.20
2009,02,18,12,46,9.20
2009,02,18,12,47,9.20
2009,02,18,12,48,9.30
2009,02,18,12,49,9.20
2009,02,18,12,50,9.20
2009,02,18,12,51,9.20
2009,02,18,12,52,9.10
2009,02,18,12,53,9.20
2009,02,18,12,54,9.20
2009,02,18,12,55,9.20
2009,02,18,12,56,9.30
2009,02,18,12,57,9.30
2009,02,18,12,58,9.20
2009,02,18,12,59,9.30
2009,02,18,13,00,9.30
2009,02,18,13,01,9.40
2009,02,18,13,02,9.40
2009,02,18,13,03,9.50
2009,02,18,13,04,9.50
2009,02,18,13,05,9.40
2009,02,18,13,06,9.20
2009,02,18,13,07,9.00
2009,02,18,13,08,9.00
2009,02,18,13,09,9.10
2009,02,18,13,10,9.30
2009,02,18,13,11,9.50
2009,02,18,13,12,9.50
2009,02,18,13,13,9.60
2009,02,18,13,14,9.60
2009,02,18,13,15,9.60
2009,02,18,13,16,9.60
2009,02,18,13,17,9.70
2009,02,18,13,18,9.70
2009,02,18,13,19,9.80
2009,02,18,13,20,9.80
2009,02,18,13,21,9.70
2009,02,18,13,22,9.70
2009,02,18,13,23,9.70
2009,02,18,13,24,9.80
2009,02,18,13,25,9.70
2009,02,18,13,26,9.60
2009,02,18,13,27,9.50
2009,02,18,13,28,9.40
2009,02,18,13,29,9.40
2009,02,18,13,30,9.40
2009,02,18,13,31,9.50
2009,02,18,13,32,9.60
2009,02,18,13,33,9.70
2009,02,18,13,34,9.80
2009,02,18,13,35,9.80
2009,02,18,13,36,9.80
2009,02,18,13,37,9.80
2009,02,18,13,38,9.80
2009,02,18,13,39,9.80
2009,02,18,13,40,9.80
2009,02,18,13,41,9.70
2009,02,18,13,42,9.70
2009,02,18,13,43,9.70
2009,02,18,13,44,9.70
2009,02,18,13,45,9.70
2009,02,18,13,46,9.70
2009,02,18,13,47,9.80
2009,02,18,13,48,9.90
2009,02,18,13,49,9.90
2009,02,18,13,50,10.00
2009,02,18,13,51,10.10
2009,02,18,13,52,10.10
2009,02,18,13,53,10.10
2009,02,18,13,54,10.20
2009,02,18,13,55,10.30
2009,02,18,13,56,10.30
2009,02,18,13,57,10.30
2009,02,18,13,58,10.40
2009,02,18,13,59,10.50
2009,02,18,14,00,10.60
2009,02,18,14,01,10.70
2009,02,18,14,02,10.60
2009,02,18,14,03,10.60
2009,02,18,14,04,10.40
2009,02,18,14,05,10.30
2009,02,18,14,06,10.40
2009,02,18,14,07,10.30
2009,02,18,14,08,10.20
2009,02,18,14,09,10.20
2009,02,18,14,10,10.20
2009,02,18,14,11,10.30
2009,02,18,14,12,10.30
2009,02,18,14,13,10.30
2009,02,18,14,14,10.30
2009,02,18,14,15,10.20
2009,02,18,14,16,10.20
2009,02,18,14,17,10.20
2009,02,18,14,18,10.30
2009,02,18,14,19,10.30
2009,02,18,14,20,10.20
2009,02,18,14,21,10.30
2009,02,18,14,22,10.30
2009,02,18,14,23,10.30
2009,02,18,14,24,10.30
2009,02,18,14,25,10.40
2009,02,18,14,26,10.30
2009,02,18,14,27,10.20
2009,02,18,14,28,10.10
2009,02,18,14,29,10.10
2009,02,18,14,30,10.20
2009,02,18,14,31,10.20
2009,02,18,14,32,10.30
2009,02,18,14,33,10.40
2009,02,18,14,34,10.40
2009,02,18,14,35,10.30
2009,02,18,14,36,10.30
2009,02,18,14,37,10.30
2009,02,18,14,38,10.30
2009,02,18,14,39,10.30
2009,02,18,14,40,10.30
2009,02,18,14,41,10.30
2009,02,18,14,42,10.40
2009,02,18,14,43,10.40
2009,02,18,14,44,10.40
2009,02,18,14,45,10.40
2009,02,18,14,46,10.40
2009,02,18,14,47,10.40
2009,02,18,14,48,10.30
2009,02,18,14,49,10.40
2009,02,18,14,50,10.40
2009,02,18,14,51,10.40
2009,02,18,14,52,10.40
2009,02,18,14,53,10.40
2009,02,18,14,54,10.40
2009,02,18,14,55,10.50
2009,02,18,14,56,10.60
2009,02,18,14,57,10.60
2009,02,18,14,58,10.60
2009,02,18,14,59,10.60
2009,02,18,15,00,10.60
2009,02,18,15,01,10.60
2009,02,18,15,02,10.50
2009,02,18,15,03,10.40
2009,02,18,15,04,10.40
2009,02,18,15,05,10.40
2009,02,18,15,06,10.50
2009,02,18,15,07,10.60
2009,02,18,15,08,10.60
2009,02,18,15,09,10.70
2009,02,18,15,10,10.70
2009,02,18,15,11,10.70
2009,02,18,15,12,10.60
2009,02,18,15,13,10.60
2009,02,18,15,14,10.60
2009,02,18,15,15,10.60
2009,02,18,15,16,10.60
2009,02,18,15,17,10.60
2009,02,18,15,18,10.60
2009,02,18,15,19,10.60
2009,02,18,15,20,10.60
2009,02,18,15,21,10.60
2009,02,18,15,22,10.60
2009,02,18,15,23,10.50
2009,02,18,15,24,10.50
2009,02,18,15,25,10.60
2009,02,18,15,26,10.60
2009,02,18,15,27,10.60
2009,02,18,15,28,10.60
2009,02,18,15,29,10.40
2009,02,18,15,30,10.40
2009,02,18,15,31,10.40
2009,02,18,15,32,10.40
2009,02,18,15,33,10.40
2009,02,18,15,34,10.40
2009,02,18,15,35,10.30
2009,02,18,15,36,10.20
2009,02,18,15,37,10.10
2009,02,18,15,38,10.10
2009,02,18,15,39,10.10
2009,02,18,15,40,10.00
2009,02,18,15,41,9.90
2009,02,18,15,42,9.90
2009,02,18,15,43,9.90
2009,02,18,15,44,10.00
2009,02,18,15,45,10.00
2009,02,18,15,46,10.00
2009,02,18,15,47,10.10
2009,02,18,15,48,10.00
2009,02,18,15,49,9.90
2009,02,18,15,50,9.90
2009,02,18,15,51,9.90
2009,02,18,15,52,9.90
2009,02,18,15,53,10.00
2009,02,18,15,54,10.10
2009,02,18,15,55,10.10
2009,02,18,15,56,10.10
2009,02,18,15,57,10.20
2009,02,18,15,58,10.20
2009,02,18,15,59,10.30
2009,02,18,16,00,10.30
2009,02,18,16,01,10.40
2009,02,18,16,02,10.40
2009,02,18,16,03,10.30
2009,02,18,16,04,10.30
2009,02,18,16,05,10.20
2009,02,18,16,06,10.20
2009,02,18,16,07,10.20
2009,02,18,16,08,10.20
2009,02,18,16,09,10.20
2009,02,18,16,10,10.20
2009,02,18,16,11,10.20
2009,02,18,16,12,10.20
2009,02,18,16,13,10.30
2009,02,18,16,14,10.30
2009,02,18,16,15,10.30
2009,02,18,16,16,10.20
2009,02,18,16,17,10.10
2009,02,18,16,18,10.10
2009,02,18,16,19,10.10
2009,02,18,16,20,10.00
2009,02,18,16,21,9.90
2009,02,18,16,22,9.90
2009,02,18,16,23,9.90
2009,02,18,16,24,9.80
2009,02,18,16,25,9.70
2009,02,18,16,26,9.70
2009,02,18,16,27,9.70
2009,02,18,16,28,9.70
2009,02,18,16,29,9.60
2009,02,18,16,30,9.60
2009,02,18,16,31,9.50
2009,02,18,16,32,9.50
2009,02,18,16,33,9.50
2009,02,18,16,34,9.50
2009,02,18,16,35,9.50
2009,02,18,16,36,9.50
2009,02,18,16,37,9.50
2009,02,18,16,38,9.50
2009,02,18,16,39,9.50
2009,02,18,16,40,9.50
2009,02,18,16,41,9.50
2009,02,18,16,42,9.50
2009,02,18,16,43,9.50
2009,02,18,16,44,9.50
2009,02,18,16,45,9.50
2009,02,18,16,46,9.50
2009,02,18,16,47,9.50
2009,02,18,16,48,9.50
2009,02,18,16,49,9.50
